Temperature
19 19 19 19 19 19 19 19 19 19 19 19 19 19 19 19 19 19 19 18 18 18 18 18 18 17 17 17 17 17 17 16 16 16 16 16 16 16 16 16 16 16 16
19 19 19 19 19 19 19 19 19 19 19 19 19 19 19 19 19 19 19 18 18 18 18 18 18 17 17 17 17 17 16 16 16 16 16 16 16 16 16 16 16 16 15
19 19 19 19 19 19 19 19 19 19 19 19 19 19 19 19 19 18 18 18 18 18 18 18 17 17 17 17 17 16 16 16 16 16 16 16 16 16 16 16 16 16 15
19 19 19 19 19 19 19 19 19 19 19 19 19 19 19 19 18 18 18 18 18 18 18 18 17 17 17 17 17 16 16 16 16 16 16 16 16 16 16 15 15 15 15
19 19 19 19 19 19 19 19 19 19 19 19 19 19 19 19 18 18 18 18 18 18 17 17 17 17 17 17 17 16 16 16 16 16 16 16 15 15 15 15 15 15 15
19 19 19 19 19 19 19 19 19 19 19 19 19 19 19 18 18 18 18 18 18 17 17 17 17 17 17 17 17 16 16 16 16 16 16 15 15 15 15 15 15 15 15
19 19 19 19 19 19 19 19 18 19 19 19 18 18 18 18 18 18 18 18 17 17 17 17 17 16 16 16 16 16 16 16 16 16 16 15 15 15 15 15 15 14 14
19 19 19 19 19 19 19 19 19 19 19 19 18 18 18 18 18 18 18 18 17 17 17 16 16 16 16 16 16 16 16 16 16 16 15 15 15 15 15 15 14 14 14
19 19 19 19 19 19 19 19 19 18 18 18 18 18 18 18 18 18 18 17 17 17 17 16 16 16 16 16 16 16 16 16 16 16 15 15 15 15 15 15 14 14 14
19 19 19 19 19 19 19 18 18 18 18 18 18 18 18 18 18 17 17 17 17 17 17 16 16 16 16 16 16 16 16 16 16 15 15 15 15 15 15 14 14 14 14
19 19 19 19 19 19 18 18 19 18 18 18 18 18 18 18 18 18 17 17 17 17 16 16 16 16 16 16 16 15 15 15 15 15 15 15 15 15 14 14 14 14 14
19 19 19 19 19 19 19 19 18 18 18 18 18 18 18 18 18 18 17 17 17 16 16 16 16 16 15 15 15 15 15 15 15 15 15 15 15 14 14 14 14 14 13
20 19 19 19 19 19 19 18 18 18 18 18 18 18 18 18 18 18 17 17 17 16 16 16 16 15 15 15 15 15 15 15 15 15 15 14 14 14 14 14 14 14 13
20 20 19 19 19 19 18 18 18 18 18 18 18 17 17 17 17 17 17 17 16 16 16 16 15 15 15 15 15 15 14 14 14 14 14 14 14 14 14 14 14 13 13
20 20 19 19 19 19 19 18 18 18 18 18 17 17 17 17 17 17 17 17 17 16 16 15 15 15 15 15 14 14 14 14 14 14 14 14 14 14 14 13 13 13 13
20 20 20 19 19 19 19 19 18 18 18 18 18 17 17 17 17 17 17 17 17 17 16 15 15 15 15 14 14 14 14 14 14 14 14 14 14 13 13 13 13 13 13
20 20 20 19 19 19 19 19 18 18 18 18 17 17 17 17 17 17 17 17 17 17 16 15 15 15 14 14 14 14 14 13 14 13 13 13 13 13 13 13 13 13 12
20 20 19 19 19 19 19 18 18 18 18 17 17 17 17 17 17 17 17 17 16 16 16 15 15 14 14 14 14 14 13 13 13 13 13 13 13 13 13 13 13 12 12
20 19 19 19 19 19 18 18 18 18 17 17 17 17 17 17 17 16 16 16 16 16 16 15 15 14 14 14 14 13 13 13 13 13 13 13 13 13 13 13 12 12 12
19 19 19 19 19 18 18 18 18 17 17 17 17 17 17 17 16 16 16 16 16 16 16 15 15 14 14 14 13 13 13 13 13 13 13 13 13 12 12 12 12 12 12
19 19 19 19 18 18 18 18 18 17 17 17 17 17 17 16 16 16 16 16 16 15 15 15 15 14 14 14 13 13 13 13 12 12 12 12 12 12 12 12 12 12 12
19 19 19 19 18 18 18 18 18 17 17 17 17 16 16 16 16 16 16 16 16 15 15 15 15 14 14 14 13 13 13 13 12 12 12 12 12 12 12 12 12 12 12
19 19 19 19 18 19 18 18 18 17 17 17 17 16 16 16 16 16 16 16 15 15 15 15 15 15 14 14 14 13 13 13 13 13 12 12 12 12 12 12 12 12 12
19 19 19 18 18 18 18 18 17 17 17 17 16 16 16 16 16 16 15 15 15 15 15 15 15 15 14 14 14 14 13 13 13 12 12 12 12 12 12 12 12 12 12
19 19 18 18 18 18 18 18 17 17 17 16 16 16 16 16 16 16 15 15 15 15 15 15 15 14 14 14 14 13 13 13 12 12 12 12 12 12 12 12 12 12 11
18 18 18 18 18 18 18 18 17 17 16 16 16 16 16 16 16 16 15 15 15 15 14 14 14 14 14 14 14 13 13 13 12 12 12 12 12 12 11 11 12 11 11
Wind_Speed
3 3 2 1 2 4 4 2 2 2 1 2 2 1 2 4 7 9 10 13 14 13 12 11 10 9 9 9 8 8 8 8 9 8 8 8 8 8 8 8 7 6 6
3 2 2 1 1 2 3 2 2 2 2 1 0 1 1 3 6 9 10 11 12 12 11 10 10 9 9 8 9 9 10 10 10 9 9 8 8 8 8 8 8 7 7
3 2 1 2 1 2 2 2 1 1 1 1 1 0 1 1 3 6 8 8 9 10 10 10 10 10 10 9 10 10 11 11 11 10 9 9 9 8 8 8 8 8 8
3 2 1 1 2 2 2 1 1 1 0 1 1 1 1 1 2 4 6 7 8 8 9 9 9 9 9 9 9 9 9 10 11 10 10 10 9 9 8 8 8 8 8
5 3 2 1 2 1 1 1 1 0 0 1 1 2 1 2 2 2 3 4 6 8 8 9 10 9 8 7 7 8 9 10 11 11 10 10 10 9 9 8 8 8 8
4 3 2 3 1 1 1 1 1 1 1 2 2 1 1 2 2 2 2 2 3 5 7 8 9 8 8 7 7 7 8 9 10 11 11 11 10 10 9 9 8 8 8
2 1 0 2 1 1 1 1 1 1 2 1 0 1 0 1 2 2 2 2 2 2 4 6 6 6 6 7 6 6 6 7 8 9 10 11 10 9 9 8 7 7 7
1 2 2 1 1 1 1 1 1 1 1 1 1 1 0 0 0 1 3 2 2 2 3 5 5 5 5 5 4 4 5 6 7 7 8 9 9 9 8 8 8 8 8
2 0 2 0 0 1 1 2 1 2 1 1 1 1 1 1 1 1 1 2 2 2 2 3 4 5 4 5 5 4 5 6 6 6 7 8 9 9 9 9 9 9 9
2 2 2 1 0 1 1 1 2 1 1 2 1 2 2 1 1 1 1 2 2 2 1 1 3 5 5 6 5 5 6 6 5 5 6 7 8 8 9 9 10 9 9
2 2 2 1 1 0 1 1 1 0 1 2 2 1 2 2 2 2 2 2 2 2 2 2 2 4 5 6 6 6 6 6 5 5 5 5 6 7 8 9 10 9 9
3 3 3 2 1 0 1 0 0 1 1 2 2 2 1 1 1 1 1 2 2 1 2 2 2 3 6 7 8 9 8 7 6 6 6 5 5 5 6 8 8 8 8
3 3 3 3 2 1 1 1 1 1 1 2 2 2 2 2 1 1 1 1 1 1 1 2 3 4 5 8 9 9 8 7 7 7 7 6 5 5 6 6 7 7 7
3 4 4 3 3 2 2 2 2 2 1 2 3 2 3 2 1 1 1 1 1 1 1 2 2 4 5 8 9 9 7 7 7 7 6 6 5 6 7 7 7 7 7
3 4 4 4 3 3 1 1 2 2 1 2 2 1 2 2 2 1 1 2 2 2 1 2 2 3 6 7 8 7 7 7 7 7 7 7 7 7 8 8 8 8 8
2 3 4 4 4 4 3 3 3 3 2 2 2 2 2 2 2 1 1 2 2 2 1 2 2 3 5 6 8 8 8 9 7 7 7 8 9 9 9 10 10 10 10
3 3 4 4 4 4 4 3 4 3 3 3 3 2 2 2 2 2 1 1 1 2 2 2 3 4 4 5 6 7 8 7 6 7 8 9 10 10 10 10 10 10 10
5 4 4 4 5 4 4 4 5 3 3 3 3 2 2 2 1 2 1 1 1 2 4 4 3 3 3 5 5 4 6 6 7 7 9 10 10 11 11 11 11 10 10
5 4 5 4 4 4 4 4 4 3 3 3 2 2 2 2 2 1 1 1 1 2 3 5 4 3 3 4 5 3 3 4 6 8 9 9 10 11 11 11 11 10 10
5 4 4 4 4 4 4 3 3 3 3 3 2 1 1 2 2 2 2 1 1 1 3 4 5 4 3 4 4 3 3 2 3 6 7 8 9 10 10 11 11 11 11
5 4 4 4 4 4 4 3 3 4 3 3 3 3 2 2 2 1 1 1 2 2 3 4 4 4 4 4 4 4 4 3 3 4 5 6 7 6 8 10 11 11 12
4 4 5 4 4 4 3 3 2 2 2 3 3 2 3 4 4 5 4 3 3 3 3 3 3 5 6 5 5 5 4 4 3 4 5 5 6 5 7 9 12 13 13
4 4 4 4 4 3 4 4 3 2 2 2 2 2 4 3 4 4 5 6 4 5 5 4 4 4 5 6 6 6 5 5 3 4 5 4 5 6 7 11 16 17 16
4 4 4 4 3 4 6 6 4 4 3 3 3 3 3 2 3 3 3 4 4 4 5 5 4 5 5 4 6 6 6 4 3 3 4 4 4 4 5 8 18 20 19
4 4 4 3 4 3 5 6 5 3 3 4 4 3 3 3 3 3 3 4 4 4 4 4 5 5 6 7 5 4 4 4 4 4 4 3 3 3 3 4 12 20 20
4 4 4 4 4 4 6 6 5 3 4 4 3 3 3 2 3 4 3 3 4 4 3 4 4 5 5 6 8 6 5 5 4 3 4 4 4 4 3 3 6 12 14
Wind_Direction
101 100 97 119 152 146 157 162 154 152 167 227 230 178 86 101 114 123 139 160 162 166 168 171 179 184 190 195 196 197 198 196 193 194 199 203 205 205 203 203 203 202 205
103 109 136 119 107 139 154 171 181 180 185 177 29 50 64 91 119 132 144 162 170 173 175 181 186 192 197 203 207 209 210 205 200 200 203 205 205 206 206 209 210 211 213
130 143 170 158 186 169 147 170 197 173 190 155 144 147 119 90 113 136 147 155 166 178 184 191 195 197 204 210 215 217 216 211 205 204 205 206 207 211 214 216 214 214 212
151 163 166 171 198 180 159 175 199 196 107 131 139 176 103 118 138 148 152 163 165 172 181 191 193 197 203 208 216 217 211 209 207 206 206 205 206 209 214 216 214 213 211
158 180 180 170 216 169 147 210 100 74 167 161 196 183 174 153 158 168 150 167 169 164 167 182 183 183 189 200 209 212 212 211 211 209 206 207 209 210 215 215 213 214 209
162 189 183 176 211 152 131 91 97 234 202 222 247 138 160 164 160 162 176 145 138 157 163 163 176 186 191 199 209 216 214 209 208 209 210 213 213 213 212 212 210 211 209
160 173 58 139 210 150 148 175 172 206 209 185 124 37 345 159 163 164 154 134 124 135 142 146 159 169 174 195 202 206 209 202 204 205 207 209 207 205 198 200 203 209 212
180 164 169 212 165 169 194 192 159 231 237 175 164 181 234 169 224 159 145 153 152 135 128 140 142 149 154 152 166 191 200 198 193 189 190 193 193 189 192 198 205 211 211
166 114 132 239 300 238 163 197 218 233 241 237 215 202 216 210 169 166 169 143 135 124 128 125 131 139 153 147 152 173 185 184 184 182 182 187 185 189 194 199 204 205 206
167 162 150 166 99 327 97 213 132 271 260 267 250 227 228 196 199 181 190 149 151 154 151 159 123 128 138 131 138 153 167 170 177 180 175 175 180 190 196 198 200 200 200
171 154 154 146 126 315 60 40 24 328 288 302 303 290 262 230 206 203 203 182 177 166 164 153 127 120 121 123 121 120 134 147 154 155 157 166 178 188 194 198 198 197 194
169 174 166 147 147 182 123 81 295 266 332 329 313 310 304 282 246 216 216 186 167 158 140 129 125 117 117 113 112 110 117 128 130 130 135 141 154 170 180 185 185 186 184
167 170 172 149 164 201 191 190 207 241 269 287 281 292 299 285 282 232 206 198 154 145 132 126 120 120 116 116 116 119 113 121 124 124 126 127 132 147 157 159 165 169 169
172 160 163 162 175 209 223 204 223 228 216 266 272 284 297 293 301 254 215 180 192 159 122 117 118 110 117 120 125 127 119 123 125 127 127 130 131 131 137 142 143 145 146
189 162 167 175 182 196 234 248 230 249 235 257 279 286 285 290 282 262 223 187 191 199 173 141 119 117 123 121 132 130 126 126 123 120 121 126 129 125 122 125 128 132 134
204 177 180 183 186 186 195 228 243 235 216 222 231 237 281 301 314 301 238 221 202 185 165 135 124 130 124 124 131 128 123 124 123 128 131 132 131 128 124 122 123 127 128
199 201 201 198 197 197 199 213 238 223 222 230 241 223 239 275 312 307 286 238 189 154 141 127 122 125 124 122 128 132 134 131 130 134 136 136 136 135 132 130 128 128 129
202 203 204 209 213 205 203 211 234 229 225 232 235 227 243 261 265 281 290 283 198 149 144 143 138 138 133 138 140 148 148 148 141 142 143 142 141 141 141 140 138 138 138
203 204 207 210 219 217 210 214 221 226 227 237 241 230 231 248 251 259 257 249 203 147 141 149 156 152 146 153 147 156 156 150 156 151 151 151 151 151 151 150 149 149 148
206 205 210 212 215 220 217 221 217 221 222 224 224 222 241 242 238 240 231 213 182 149 138 149 152 157 154 163 163 171 175 181 168 159 155 156 158 161 163 161 160 160 161
209 205 211 214 218 217 222 219 231 221 221 223 216 210 215 201 196 186 218 184 173 169 167 165 164 168 172 174 185 188 184 179 183 174 161 166 163 167 171 173 171 172 172
204 207 212 214 220 225 185 173 205 239 223 228 226 216 203 198 181 167 165 164 167 188 186 182 192 188 187 188 183 187 185 184 192 184 175 186 176 183 177 179 183 183 181
206 215 214 209 211 198 170 172 192 236 227 230 239 238 246 217 173 186 192 190 189 197 193 197 203 208 198 192 190 195 199 203 206 182 179 198 186 189 184 188 186 187 188
206 212 214 204 209 197 175 182 200 225 234 226 226 231 229 204 211 196 205 195 197 201 209 211 214 218 213 199 199 199 199 201 203 191 177 194 197 200 185 178 185 186 190
208 213 215 210 207 188 183 186 189 219 230 237 234 232 228 204 193 180 199 206 212 220 218 209 202 197 199 202 192 191 196 195 209 209 197 195 194 186 173 174 185 188 191
212 210 212 216 204 184 186 189 194 217 231 234 232 226 217 201 173 181 205 212 220 232 214 202 200 205 207 205 202 202 205 209 210 212 198 192 193 180 189 181 175 187 195
Height
1533 1535 1536 1537 1539 1540 1541 1542 1544 1545 1546 1547 1548 1549 1549 1550 1549 1549 1550 1551 1551 1552 1552 1553 1553 1554 1555 1555 1556 1557 1558 1559 1560 1561 1562 1563 1564 1565 1566 1567 1568 1569 1570
1534 1535 1537 1538 1540 1541 1542 1543 1544 1545 1546 1546 1547 1548 1549 1549 1549 1549 1549 1550 1550 1550 1551 1551 1552 1553 1553 1554 1554 1555 1556 1557 1558 1559 1560 1561 1562 1563 1564 1565 1566 1567 1568
1535 1536 1538 1539 1540 1541 1542 1543 1544 1545 1545 1546 1546 1547 1548 1548 1548 1548 1549 1549 1549 1549 1549 1550 1550 1551 1551 1552 1552 1553 1554 1555 1556 1557 1558 1559 1560 1561 1562 1563 1564 1565 1566
1535 1536 1538 1539 1540 1541 1542 1543 1543 1544 1545 1545 1546 1546 1547 1547 1547 1548 1548 1548 1548 1548 1548 1548 1548 1549 1549 1549 1550 1550 1551 1552 1553 1554 1555 1556 1557 1558 1559 1560 1562 1563 1563
1536 1537 1538 1539 1540 1541 1542 1542 1543 1543 1544 1544 1545 1545 1546 1546 1546 1547 1547 1547 1547 1547 1547 1547 1547 1547 1547 1547 1548 1548 1549 1549 1550 1551 1552 1553 1555 1556 1557 1558 1559 1560 1561
1536 1537 1538 1539 1540 1541 1541 1542 1542 1543 1543 1543 1544 1544 1544 1544 1545 1545 1546 1546 1546 1546 1545 1545 1545 1545 1545 1546 1546 1546 1546 1547 1547 1548 1549 1550 1551 1552 1553 1555 1556 1557 1558
1536 1537 1538 1539 1539 1540 1541 1541 1541 1542 1542 1543 1543 1543 1543 1543 1544 1544 1544 1545 1545 1544 1544 1544 1544 1543 1543 1544 1544 1544 1544 1544 1544 1545 1546 1547 1548 1549 1550 1551 1553 1554 1555
1536 1537 1537 1538 1539 1539 1540 1540 1541 1541 1542 1542 1542 1542 1543 1544 1543 1543 1543 1543 1543 1543 1543 1543 1542 1542 1542 1542 1542 1542 1542 1542 1542 1542 1543 1544 1545 1546 1547 1548 1549 1551 1552
1536 1536 1537 1537 1538 1538 1539 1539 1539 1540 1540 1541 1541 1542 1542 1541 1542 1542 1542 1542 1542 1542 1542 1542 1541 1541 1540 1540 1540 1540 1540 1540 1541 1541 1541 1541 1542 1543 1544 1545 1546 1547 1549
1536 1536 1537 1537 1537 1537 1538 1538 1538 1538 1539 1539 1540 1540 1541 1541 1541 1541 1541 1541 1541 1541 1541 1541 1540 1540 1539 1538 1538 1538 1538 1539 1538 1538 1539 1539 1540 1540 1541 1542 1543 1544 1545
1535 1536 1536 1536 1536 1536 1537 1537 1537 1537 1537 1538 1538 1539 1539 1539 1539 1539 1539 1539 1539 1539 1539 1539 1539 1538 1538 1537 1537 1537 1537 1537 1537 1537 1537 1537 1538 1538 1539 1540 1540 1542 1543
1534 1535 1535 1535 1535 1535 1535 1535 1536 1536 1536 1536 1536 1537 1537 1537 1537 1537 1537 1537 1537 1537 1537 1537 1537 1537 1536 1536 1536 1535 1536 1536 1536 1536 1536 1536 1536 1536 1537 1538 1539 1540 1541
1533 1533 1534 1534 1534 1534 1534 1534 1535 1535 1535 1535 1535 1535 1535 1535 1536 1535 1535 1535 1535 1536 1536 1535 1535 1535 1535 1534 1534 1534 1534 1534 1534 1534 1534 1534 1535 1535 1535 1536 1537 1538 1539
1532 1533 1533 1533 1533 1533 1533 1533 1533 1533 1533 1533 1534 1534 1534 1534 1534 1534 1534 1533 1534 1534 1534 1534 1534 1534 1534 1534 1533 1533 1533 1533 1533 1533 1533 1533 1534 1534 1535 1535 1536 1537 1538
1531 1531 1531 1531 1531 1531 1531 1532 1532 1532 1532 1532 1532 1532 1532 1532 1532 1532 1532 1532 1532 1532 1532 1533 1533 1533 1533 1532 1532 1533 1532 1532 1532 1532 1532 1532 1533 1533 1534 1534 1535 1535 1536
1529 1529 1529 1529 1529 1529 1529 1530 1530 1530 1530 1530 1530 1530 1530 1530 1530 1530 1530 1530 1530 1530 1530 1531 1531 1531 1532 1531 1532 1532 1532 1531 1531 1531 1531 1531 1532 1532 1533 1533 1534 1534 1535
1526 1526 1527 1527 1527 1527 1528 1528 1528 1528 1528 1528 1528 1528 1528 1528 1528 1528 1528 1528 1528 1528 1528 1529 1530 1530 1530 1530 1530 1531 1531 1530 1530 1531 1531 1531 1531 1531 1532 1533 1533 1534 1535
1523 1524 1524 1524 1525 1525 1525 1525 1526 1526 1526 1526 1526 1526 1526 1526 1526 1526 1526 1526 1526 1527 1527 1527 1528 1528 1529 1529 1529 1530 1530 1530 1529 1530 1530 1530 1530 1531 1531 1532 1532 1533 1534
1521 1521 1522 1522 1522 1523 1523 1523 1523 1524 1524 1524 1524 1524 1523 1523 1523 1523 1524 1524 1524 1525 1525 1525 1526 1526 1527 1527 1528 1528 1529 1529 1528 1528 1529 1529 1530 1530 1531 1531 1532 1532 1533
1518 1519 1519 1519 1520 1520 1520 1520 1520 1521 1521 1521 1521 1521 1521 1520 1520 1521 1521 1521 1522 1522 1523 1523 1524 1524 1525 1525 1526 1526 1527 1527 1527 1527 1528 1528 1529 1529 1530 1530 1531 1531 1532
1515 1516 1516 1517 1517 1518 1518 1518 1518 1518 1518 1518 1518 1518 1518 1518 1518 1519 1519 1519 1519 1520 1520 1521 1521 1522 1522 1523 1523 1524 1525 1525 1526 1526 1526 1526 1527 1527 1528 1529 1529 1530 1531
1512 1513 1514 1514 1514 1514 1514 1515 1515 1515 1515 1515 1515 1515 1515 1515 1515 1516 1516 1516 1517 1517 1518 1518 1519 1519 1519 1520 1521 1522 1523 1523 1523 1524 1524 1524 1525 1525 1526 1527 1527 1528 1529
1509 1510 1511 1510 1510 1510 1511 1512 1512 1512 1512 1512 1513 1513 1513 1513 1513 1513 1513 1513 1514 1515 1515 1516 1516 1516 1517 1517 1518 1519 1519 1520 1520 1521 1522 1522 1523 1523 1524 1524 1525 1526 1527
1506 1506 1507 1507 1507 1507 1507 1508 1509 1509 1509 1509 1509 1509 1509 1509 1509 1509 1510 1510 1511 1511 1512 1512 1513 1513 1514 1515 1515 1516 1517 1517 1518 1519 1519 1519 1520 1521 1522 1522 1523 1523 1524
1502 1503 1504 1504 1504 1504 1505 1505 1506 1506 1506 1506 1506 1506 1506 1506 1506 1506 1507 1507 1507 1508 1508 1509 1509 1510 1510 1511 1512 1513 1513 1514 1514 1515 1516 1517 1517 1518 1518 1519 1520 1521 1521
1499 1499 1500 1501 1501 1501 1501 1502 1503 1502 1502 1503 1503 1503 1503 1503 1503 1503 1503 1504 1504 1504 1505 1505 1505 1506 1506 1507 1508 1509 1509 1510 1510 1511 1512 1513 1514 1515 1515 1515 1516 1517 1518